{"data":{"norad_id":45427,"intl_designator":"2020-020D","name":"ONEWEB-0090","alt_names":[],"object_type":"PAYLOAD","status":"ACTIVE","operator":null,"country":"UK","launch_date":"2020-03-21","launch_site_code":"TYMSC","launch_vehicle":null,"mission":null,"orbit_class":"UNKNOWN","rcs_meters":null,"size_class":null,"mass_kg":null,"dimensions":null,"purposes":["comms"],"wikipedia_slug":null,"has_3d_model":false,"image_url":null,"decayed_at":null,"tle_current":{"epoch":"2026-05-25T02:16:50.737152Z","epoch_age_seconds":60777,"freshness":"FRESH","line1":"1 45427U 20020D   26145.09503168 -.00000109  00000+0 -34206-3 0  9995","line2":"2 45427  87.8920  25.6645 0001719  81.5369 278.5954 13.11418667299644","mean_motion":13.11418667,"eccentricity":0.0001719,"inclination_deg":87.892,"raan_deg":25.6645,"arg_perigee_deg":81.5369,"mean_anomaly_deg":278.5954,"bstar":-0.00034206,"rev_number":29964,"period_min":109.80475085765,"perigee_km":1216.3703288207,"apogee_km":1218.9817693469,"semimajor_km":7595.8130490838,"source":"CELESTRAK","updated_at":"2026-05-25T13:38:22.341244Z"}}}